Precipitable_Water
1.40 1.40 1.36 1.33 1.30 1.28 1.23 1.18 1.16 1.12 1.11 1.10 1.06 1.03 1.01 1.01 1.01 0.98 0.97 0.97 0.98 0.98 0.99 1.00 1.02 1.03 1.05 1.08 1.10 1.12 1.15 1.17 1.18 1.19 1.20 1.21 1.19 1.17 1.15 1.18 1.25 1.33
1.39 1.38 1.36 1.32 1.27 1.24 1.19 1.15 1.08 1.03 1.00 1.01 1.01 1.00 0.99 0.99 0.99 0.99 0.97 0.94 0.93 0.92 0.94 0.96 0.99 1.00 1.01 1.02 1.04 1.03 1.04 1.07 1.08 1.19 1.19 1.17 1.17 1.17 1.16 1.17 1.20 1.25
1.33 1.30 1.25 1.20 1.16 1.13 1.10 1.06 1.01 0.97 0.92 0.92 0.92 0.91 0.91 0.95 0.94 0.97 0.98 0.99 0.96 0.95 0.94 0.95 0.95 0.97 0.98 1.00 1.03 1.04 1.04 1.06 1.05 1.10 1.12 1.11 1.13 1.10 1.10 1.13 1.17 1.19
1.30 1.25 1.18 1.12 1.07 1.02 1.00 0.95 0.92 0.90 0.88 0.84 0.83 0.86 0.87 0.88 0.89 0.89 0.91 0.94 0.94 0.95 0.98 1.00 1.00 1.01 1.01 1.02 1.03 1.04 1.07 1.07 1.10 1.10 1.06 1.07 1.09 1.10 1.09 1.09 1.07 1.07
1.24 1.18 1.10 1.02 0.97 0.93 0.89 0.84 0.81 0.81 0.79 0.80 0.81 0.81 0.81 0.82 0.81 0.82 0.84 0.87 0.91 0.93 0.96 0.98 1.02 1.04 1.06 1.07 1.08 1.05 1.06 1.05 1.06 1.07 1.03 1.01 1.04 1.03 1.05 1.06 1.03 1.00
1.11 1.03 0.95 0.89 0.86 0.83 0.80 0.78 0.79 0.78 0.77 0.75 0.76 0.80 0.80 0.81 0.80 0.81 0.83 0.85 0.89 0.92 0.93 0.96 0.97 1.00 1.02 1.05 1.07 1.09 1.09 1.07 1.06 1.05 1.01 0.99 1.01 1.04 1.02 1.02 1.00 0.97
0.94 0.90 0.87 0.87 0.84 0.84 0.82 0.81 0.81 0.80 0.78 0.78 0.78 0.76 0.77 0.77 0.79 0.82 0.85 0.87 0.89 0.90 0.90 0.91 0.93 0.95 1.00 1.01 1.02 1.03 1.07 1.08 1.09 1.07 1.03 1.02 1.01 1.01 1.04 1.02 1.00 0.98
0.86 0.86 0.86 0.85 0.83 0.82 0.80 0.80 0.79 0.78 0.79 0.78 0.75 0.78 0.81 0.81 0.83 0.86 0.89 0.90 0.88 0.88 0.89 0.91 0.93 0.95 0.98 1.00 0.99 0.98 1.00 1.05 1.06 1.05 1.03 1.03 1.04 1.01 1.03 1.04 1.02 0.97
0.83 0.81 0.80 0.79 0.77 0.76 0.75 0.75 0.76 0.76 0.79 0.78 0.78 0.81 0.86 0.87 0.88 0.89 0.90 0.91 0.90 0.90 0.90 0.90 0.90 0.91 0.94 0.95 0.96 0.96 0.96 0.99 1.03 1.04 1.02 1.01 1.01 1.02 1.04 1.06 1.02 1.00
0.76 0.77 0.75 0.74 0.71 0.71 0.70 0.73 0.76 0.77 0.80 0.78 0.80 0.83 0.83 0.89 0.92 0.92 0.92 0.91 0.90 0.90 0.89 0.88 0.88 0.88 0.89 0.90 0.90 0.92 0.93 0.92 0.97 1.03 1.04 1.04 1.03 1.02 1.02 1.02 1.00 0.98
0.74 0.73 0.69 0.66 0.66 0.67 0.68 0.72 0.74 0.75 0.76 0.76 0.77 0.79 0.83 0.86 0.89 0.91 0.88 0.88 0.87 0.87 0.87 0.86 0.86 0.86 0.84 0.85 0.87 0.90 0.91 0.90 0.90 0.94 1.00 1.04 1.04 1.02 1.00 0.98 0.97 0.96
0.68 0.65 0.63 0.62 0.63 0.64 0.66 0.67 0.69 0.69 0.70 0.72 0.75 0.76 0.81 0.84 0.84 0.86 0.87 0.87 0.88 0.88 0.88 0.88 0.89 0.88 0.85 0.84 0.84 0.87 0.88 0.88 0.87 0.89 0.92 0.97 0.99 0.98 0.98 0.96 0.94 0.94
0.59 0.60 0.60 0.59 0.60 0.60 0.61 0.62 0.64 0.66 0.68 0.69 0.76 0.79 0.80 0.81 0.83 0.83 0.85 0.85 0.85 0.85 0.85 0.86 0.88 0.88 0.87 0.86 0.86 0.88 0.86 0.82 0.81 0.83 0.86 0.90 0.91 0.90 0.93 0.96 0.96 0.95
0.56 0.60 0.59 0.57 0.58 0.58 0.60 0.61 0.63 0.65 0.67 0.71 0.76 0.77 0.79 0.79 0.80 0.80 0.82 0.81 0.80 0.80 0.81 0.83 0.84 0.84 0.84 0.83 0.84 0.85 0.84 0.79 0.80 0.81 0.82 0.83 0.85 0.87 0.88 0.90 0.93 0.95
0.58 0.60 0.58 0.55 0.56 0.58 0.59 0.62 0.65 0.68 0.71 0.72 0.74 0.75 0.78 0.78 0.78 0.76 0.74 0.73 0.73 0.73 0.73 0.75 0.74 0.72 0.71 0.70 0.70 0.75 0.76 0.72 0.74 0.77 0.79 0.79 0.80 0.82 0.85 0.87 0.89 0.92
0.60 0.59 0.57 0.55 0.57 0.61 0.64 0.66 0.68 0.69 0.69 0.67 0.67 0.68 0.69 0.72 0.70 0.69 0.68 0.66 0.64 0.64 0.65 0.66 0.66 0.69 0.69 0.66 0.67 0.71 0.68 0.63 0.63 0.66 0.69 0.72 0.73 0.76 0.80 0.84 0.85 0.88
0.60 0.60 0.59 0.57 0.62 0.65 0.66 0.66 0.66 0.66 0.64 0.64 0.64 0.65 0.66 0.68 0.69 0.67 0.66 0.65 0.63 0.62 0.62 0.63 0.65 0.68 0.66 0.63 0.65 0.68 0.71 0.63 0.59 0.59 0.61 0.62 0.65 0.68 0.71 0.76 0.82 0.87
0.62 0.63 0.61 0.61 0.63 0.63 0.64 0.63 0.62 0.61 0.61 0.62 0.62 0.63 0.65 0.67 0.66 0.67 0.65 0.63 0.60 0.59 0.59 0.62 0.65 0.66 0.63 0.61 0.63 0.66 0.70 0.65 0.62 0.61 0.60 0.59 0.60 0.61 0.63 0.68 0.72 0.79
0.63 0.63 0.62 0.61 0.61 0.62 0.61 0.60 0.58 0.57 0.56 0.56 0.56 0.60 0.60 0.57 0.57 0.57 0.57 0.58 0.57 0.55 0.55 0.59 0.65 0.68 0.61 0.60 0.61 0.65 0.68 0.65 0.62 0.62 0.62 0.63 0.63 0.62 0.62 0.64 0.67 0.69
0.63 0.63 0.62 0.60 0.61 0.61 0.59 0.56 0.54 0.52 0.53 0.53 0.53 0.54 0.54 0.53 0.53 0.53 0.54 0.52 0.53 0.55 0.55 0.55 0.60 0.64 0.58 0.59 0.60 0.63 0.66 0.63 0.61 0.62 0.64 0.66 0.68 0.68 0.66 0.67 0.70 0.71
0.63 0.63 0.63 0.60 0.59 0.58 0.55 0.52 0.51 0.51 0.50 0.51 0.49 0.48 0.48 0.49 0.49 0.49 0.50 0.48 0.46 0.49 0.50 0.49 0.54 0.60 0.57 0.58 0.57 0.60 0.63 0.60 0.60 0.62 0.66 0.68 0.72 0.73 0.72 0.72 0.74 0.76
0.64 0.65 0.63 0.60 0.56 0.53 0.50 0.50 0.50 0.50 0.49 0.50 0.47 0.46 0.47 0.48 0.47 0.47 0.44 0.42 0.44 0.45 0.45 0.43 0.49 0.55 0.55 0.54 0.53 0.54 0.58 0.56 0.58 0.61 0.65 0.70 0.73 0.76 0.75 0.75 0.77 0.80
0.65 0.65 0.62 0.59 0.54 0.52 0.50 0.51 0.50 0.49 0.49 0.51 0.46 0.45 0.44 0.43 0.43 0.42 0.43 0.42 0.43 0.43 0.44 0.43 0.45 0.50 0.51 0.50 0.51 0.52 0.56 0.54 0.56 0.60 0.64 0.68 0.73 0.76 0.77 0.75 0.77 0.82
0.64 0.65 0.61 0.59 0.56 0.52 0.51 0.52 0.53 0.52 0.50 0.51 0.46 0.44 0.43 0.44 0.46 0.43 0.43 0.44 0.44 0.43 0.46 0.42 0.44 0.47 0.48 0.47 0.49 0.50 0.55 0.54 0.55 0.56 0.59 0.65 0.72 0.77 0.78 0.76 0.76 0.79
0.63 0.64 0.61 0.59 0.57 0.53 0.54 0.51 0.51 0.52 0.53 0.52 0.49 0.48 0.46 0.46 0.47 0.45 0.44 0.45 0.46 0.46 0.46 0.44 0.44 0.46 0.48 0.46 0.46 0.47 0.50 0.52 0.54 0.53 0.54 0.60 0.66 0.73 0.77 0.76 0.76 0.78
0.63 0.63 0.61 0.60 0.57 0.57 0.58 0.56 0.55 0.54 0.53 0.52 0.50 0.50 0.48 0.47 0.47 0.46 0.44 0.45 0.46 0.46 0.46 0.46 0.45 0.46 0.48 0.46 0.45 0.45 0.45 0.48 0.50 0.49 0.50 0.56 0.61 0.67 0.70 0.74 0.77 0.77
Wind_Speed
16 17 17 17 17 18 18 19 19 19 20 20 20 20 20 21 21 21 21 21 20 19 19 19 19 19 19 19 19 18 18 18 17 17 17 16 16 16 15 15 15 14
17 18 18 18 19 19 20 21 21 21 21 21 21 22 22 22 22 22 22 22 21 21 21 20 20 20 20 20 20 20 19 19 18 18 17 17 16 16 16 16 16 15
18 19 19 20 21 22 22 23 23 23 23 23 23 24 24 24 24 23 23 23 22 22 22 21 21 21 20 20 20 20 20 19 19 19 18 18 17 17 17 17 16 16
20 20 21 22 23 24 24 24 24 24 25 25 25 25 25 25 25 25 24 24 24 23 23 23 22 21 21 21 20 20 20 19 19 20 19 19 18 18 18 18 18 17
21 22 24 25 25 25 26 26 26 26 26 26 26 26 26 26 25 25 25 25 24 24 24 23 23 22 22 21 21 21 20 20 20 20 20 20 20 19 19 19 19 19
24 25 25 26 26 26 26 26 27 27 26 26 26 26 26 26 26 26 26 25 25 24 23 23 23 23 23 22 22 21 21 21 21 21 21 21 21 21 20 20 20 20
25 26 26 26 26 26 26 26 26 26 26 26 25 25 25 25 25 25 25 25 24 24 24 24 24 23 23 23 23 22 22 22 23 23 22 22 22 21 21 21 21 21
26 27 27 27 27 27 26 26 26 26 25 25 25 25 25 25 25 24 24 24 24 24 24 24 24 24 24 24 24 24 23 23 23 23 23 23 23 22 22 22 22 22
27 27 27 27 27 26 26 26 26 25 25 24 24 24 24 24 24 24 24 24 24 24 24 25 25 25 25 25 25 25 25 25 24 24 24 24 24 24 23 23 23 23
27 27 27 26 26 26 25 25 24 24 24 23 23 23 23 23 23 23 23 24 24 24 24 24 25 25 25 26 26 26 26 26 26 26 25 25 25 25 25 24 24 24
26 26 26 25 25 25 24 24 23 23 23 23 22 22 22 22 22 22 22 22 23 23 24 24 24 25 25 25 26 26 26 26 26 26 26 26 26 26 26 25 25 25
26 25 25 25 24 24 24 23 23 22 22 22 21 21 21 21 21 21 21 22 22 23 23 24 24 24 25 25 25 25 26 26 26 26 26 27 27 27 27 26 26 26
25 24 24 23 23 23 23 22 22 21 21 21 20 20 20 20 20 20 21 21 22 22 23 23 23 24 24 25 25 25 26 26 26 26 26 26 27 27 27 27 27 27
23 22 22 23 23 23 22 21 21 20 20 20 20 20 20 20 20 20 21 21 21 22 22 23 23 23 24 25 25 25 26 26 26 26 26 26 26 26 27 27 27 27
21 21 22 22 22 21 21 20 20 19 19 20 20 20 20 20 20 21 21 21 22 22 23 23 23 23 24 24 25 25 25 26 26 25 25 25 26 26 26 27 27 27
20 21 21 21 21 20 19 19 19 19 19 19 20 20 20 20 20 21 21 22 22 23 23 23 23 23 23 24 24 24 24 24 24 24 24 25 25 26 26 26 27 27
20 20 20 20 19 19 19 18 19 19 19 19 19 20 20 20 20 21 21 22 22 23 23 23 22 23 23 23 23 23 23 23 23 23 23 23 24 24 25 25 26 27
19 19 19 19 19 18 18 18 18 18 19 19 19 19 20 20 20 21 21 21 22 22 22 22 22 23 23 23 23 23 23 23 22 22 22 22 22 23 23 23 24 25
19 19 19 19 19 18 18 18 18 18 18 18 18 19 19 19 19 20 20 20 20 21 21 21 21 22 23 23 23 23 23 22 22 22 22 22 22 22 21 21 22 22
19 19 19 19 18 18 17 17 17 17 17 17 18 18 18 18 19 19 19 19 20 20 20 20 20 21 22 21 21 22 22 21 21 21 21 21 21 21 20 20 20 20
19 19 18 18 18 17 17 17 17 17 17 17 17 17 18 18 18 18 19 19 19 19 19 19 19 20 21 20 20 20 20 20 20 20 20 20 20 20 19 19 19 19
19 18 17 17 17 17 17 16 16 16 16 16 16 17 17 17 18 18 18 18 18 18 18 18 19 19 20 20 20 20 19 19 18 18 19 19 19 19 18 18 18 18
19 18 17 17 17 16 16 16 16 15 15 16 16 16 16 17 17 17 17 17 18 18 18 18 18 19 19 20 20 20 19 18 18 17 17 18 18 18 18 17 17 18
18 17 17 17 17 16 16 16 15 15 15 15 15 16 16 16 16 16 16 17 17 17 18 18 18 19 19 20 20 20 20 18 18 17 17 17 17 17 17 17 17 18
18 17 16 16 16 16 16 15 15 15 15 15 15 15 16 16 16 16 16 16 17 17 18 18 18 18 19 20 20 20 20 18 18 18 17 17 17 16 17 17 17 17
17 16 16 16 16 16 15 15 15 15 15 15 15 15 15 15 15 16 16 16 17 17 17 18 18 18 19 20 20 21 20 19 18 18 18 17 17 16 16 16 16 17
Wind_Direction
324 322 321 321 320 320 319 318 317 316 314 313 312 311 310 310 309 309 308 307 305 303 302 300 299 297 295 294 293 292 290 290 290 289 289 289 289 289 288 287 285 283
321 320 318 317 316 316 316 315 314 312 311 310 309 308 307 307 307 306 306 305 303 302 300 298 296 295 294 293 292 291 289 288 287 287 287 287 287 287 286 286 284 282
319 318 317 316 315 314 313 312 311 310 309 308 306 306 305 305 305 304 304 303 302 301 299 297 295 294 293 292 290 289 288 288 287 285 285 284 284 284 284 284 282 281
317 316 315 315 313 313 312 311 310 309 308 307 306 305 304 303 303 302 302 302 301 300 299 298 296 295 293 291 289 287 286 286 285 285 284 283 282 281 281 281 280 279
315 314 314 313 312 311 311 310 309 308 307 306 305 304 303 302 302 301 300 300 299 299 298 298 297 296 295 292 290 288 286 285 284 283 283 283 282 280 278 278 278 278
314 313 313 312 311 311 310 309 308 307 307 306 305 304 303 302 301 300 300 299 299 298 297 296 296 296 295 293 291 289 287 286 285 284 283 282 282 280 278 276 276 276
314 313 313 312 311 311 310 309 309 308 308 306 305 304 303 302 302 301 300 299 298 298 296 295 294 294 293 292 291 289 287 286 285 285 284 283 282 280 279 277 275 274
313 313 312 312 311 311 311 311 311 310 310 308 307 306 305 304 304 303 302 301 299 298 297 296 294 293 292 291 290 290 288 286 284 284 283 282 282 280 279 277 276 275
312 312 312 312 312 312 312 312 312 311 311 310 309 308 307 306 306 305 304 303 302 301 300 298 297 295 293 292 291 290 288 286 284 283 282 281 280 280 278 277 276 275
313 313 313 313 313 313 313 313 312 312 312 312 311 310 309 308 307 306 305 305 304 304 303 301 300 299 297 295 293 291 289 287 285 283 281 280 279 279 278 276 275 274
314 314 314 314 314 314 314 314 314 313 313 313 313 312 311 310 309 307 306 306 305 304 303 302 302 301 300 298 296 293 290 288 286 284 282 280 279 278 278 277 275 274
313 313 313 314 314 314 315 315 315 314 315 315 315 314 313 312 311 310 308 307 306 305 304 303 302 301 300 299 297 295 293 290 288 285 283 281 279 279 278 276 275 274
313 313 313 314 315 315 315 315 315 316 316 317 317 316 316 315 314 312 311 310 309 308 308 306 304 303 301 300 298 296 294 293 290 287 284 282 281 280 278 276 275 274
313 314 315 316 316 316 316 316 316 317 318 318 318 319 319 318 316 315 314 313 312 311 310 309 307 306 304 302 300 298 296 294 292 289 287 284 282 280 278 277 275 274
314 315 316 317 317 317 318 318 318 318 319 319 320 320 320 319 318 317 316 315 314 312 311 310 309 309 308 306 304 301 299 297 295 292 290 288 284 281 279 277 275 273
315 316 318 318 318 319 319 319 319 319 319 320 320 320 320 320 319 319 318 317 316 314 312 311 310 309 310 310 308 305 303 302 299 297 294 292 289 285 282 279 276 274
315 317 318 319 319 319 320 320 319 319 319 320 320 321 321 321 320 320 320 320 319 317 315 313 311 311 311 311 309 308 306 305 303 301 299 297 294 291 287 284 280 276
315 316 318 319 319 319 319 319 319 319 320 321 321 322 322 323 323 323 323 323 322 321 319 316 313 314 314 312 310 309 307 305 303 302 301 300 298 296 293 289 286 282
314 315 318 319 319 318 318 318 318 319 321 322 323 324 324 325 326 327 327 327 326 325 324 321 318 319 318 315 311 310 308 306 303 302 302 300 299 298 296 293 291 288
313 314 317 318 318 318 317 318 318 320 321 322 323 324 326 327 328 328 329 330 329 329 328 326 325 325 324 320 316 313 310 307 304 302 301 300 299 298 296 294 293 293
312 313 315 317 317 317 317 318 318 320 321 323 324 325 326 328 328 329 330 331 331 331 331 331 331 331 331 330 326 321 316 311 306 303 302 301 300 298 295 293 294 295
312 311 312 315 315 315 316 317 318 320 321 323 324 325 326 328 329 330 331 332 333 334 334 334 334 335 336 336 334 331 327 320 314 310 307 305 303 301 297 294 294 296
311 309 309 312 313 313 314 316 318 319 321 322 323 325 327 329 330 332 332 334 335 336 336 337 336 337 338 339 338 337 335 330 326 321 316 312 309 305 302 297 293 298
310 307 307 310 312 312 312 314 316 318 320 321 323 325 327 329 331 332 333 334 336 336 338 338 337 338 339 340 340 340 338 335 333 330 325 322 318 312 309 303 297 299
309 307 307 309 311 311 312 313 315 317 318 320 322 324 327 328 330 332 332 333 334 336 337 338 337 338 339 340 340 340 339 336 334 333 331 329 326 321 316 311 304 302
310 307 307 309 310 310 310 311 313 315 316 318 321 323 326 327 329 330 330 331 333 334 335 336 336 337 339 339 340 341 340 337 334 334 333 331 329 326 321 317 312 307